MST,Max TemperatureF,Mean TemperatureF,Min TemperatureF,Max Dew PointF,MeanDew PointF,Min DewpointF,Max Humidity, Mean Humidity, Min Humidity, Max Sea Level PressureIn, Mean Sea Level PressureIn, Min Sea Level PressureIn, Max VisibilityMiles, Mean VisibilityMiles, Min VisibilityMiles, Max Wind SpeedMPH, Mean Wind SpeedMPH, Max Gust SpeedMPH,PrecipitationIn, CloudCover, Events, WindDirDegrees
2014-1-1,26,19,11,21,17,9,100,87,73,30.52,30.41,30.27,10,6,0,8,1,9,0.00,6,Fog,147
2014-1-2,33,22,11,23,16,7,96,77,58,30.49,30.36,30.16,10,9,5,6,1,6,0.00,5,,60
2014-1-3,36,23,9,25,19,4,92,69,46,30.14,30.00,29.90,10,10,7,14,5,18,T,4,Snow,327
2014-1-4,26,13,-1,10,2,-3,87,63,38,30.52,30.36,30.17,10,10,10,15,3,21,0.00,2,,359
2014-1-5,23,8,-7,6,-2,-11,100,74,47,30.71,30.64,30.49,10,10,9,7,1,7,0.00,0,,180
2014-1-6,25,12,-1,8,1,-6,87,66,45,30.69,30.55,30.35,10,9,2,8,1,8,0.00,0,,162
2014-1-7,30,21,11,25,16,6,92,66,39,30.34,30.17,30.01,10,7,1,8,1,9,0.05,7,Snow,50
2014-1-8,32,29,25,30,27,21,100,92,84,30.15,29.99,29.80,10,4,1,15,4,20,0.21,8,Snow,151
2014-1-9,34,30,25,30,24,18,92,80,68,30.01,29.85,29.77,10,6,1,20,5,28,0.09,8,Snow,159
2014-1-10,33,30,26,28,26,23,92,85,78,30.12,30.03,29.88,10,8,2,14,3,17,0.04,8,Snow,83
2014-1-11,40,35,29,32,28,22,92,77,61,30.06,29.82,29.63,10,6,1,32,12,43,0.31,7,Rain-Snow,187
2014-1-12,31,29,26,26,23,20,92,78,63,30.31,30.06,29.69,10,3,0,25,8,32,0.34,8,Fog-Snow,231
2014-1-13,39,32,25,30,27,23,100,88,75,30.60,30.41,30.24,10,6,0,8,2,9,T,7,Fog,349
2014-1-14,30,23,16,24,18,9,96,85,73,30.77,30.62,30.50,10,3,0,7,1,8,0.00,4,Fog,183
2014-1-15,29,22,14,22,12,7,84,76,67,30.71,30.59,30.47,10,3,0,6,1,7,0.00,5,Fog,116
2014-1-16,30,19,7,21,8,1,88,77,66,30.73,30.59,30.42,10,5,0,5,1,6,0.00,3,,190
2014-1-17,29,16,3,19,6,-1,88,81,74,30.60,30.47,30.37,10,7,0,6,0,6,0.00,3,,160
2014-1-18,30,17,3,20,10,0,92,78,63,30.57,30.50,30.45,10,10,6,6,1,7,0.00,0,,165
2014-1-19,34,17,0,21,10,-3,96,80,63,30.45,30.35,30.21,10,8,0,6,1,7,0.00,1,Fog,170
2014-1-20,37,22,7,21,11,3,92,77,61,30.64,30.49,30.33,10,8,1,9,1,10,0.00,1,,192
2014-1-21,35,21,6,21,13,2,92,78,63,30.61,30.50,30.37,10,8,0,6,1,6,T,0,Fog-Snow,157
2014-1-22,40,23,5,21,14,2,92,68,44,30.40,30.33,30.22,10,10,7,10,3,15,0.00,4,,336
2014-1-23,40,24,7,21,14,6,96,70,44,30.66,30.52,30.37,10,10,9,8,1,12,0.00,0,,255
2014-1-24,32,18,3,18,9,-1,88,72,55,30.76,30.67,30.62,10,10,7,10,1,11,0.00,0,,167
2014-1-25,33,19,5,16,9,3,88,62,35,30.61,30.51,30.39,10,9,5,7,1,7,0.00,0,,129
2014-1-26,37,21,5,15,9,1,92,61,29,30.38,30.29,30.18,10,9,4,6,1,7,0.00,1,,154
2014-1-27,37,24,11,20,14,10,88,70,52,30.36,30.25,30.17,10,10,5,13,2,17,0.00,1,,110
2014-1-28,28,15,2,17,9,-2,88,72,55,30.46,30.36,30.11,10,10,7,8,1,9,0.00,4,,255
2014-1-29,33,29,24,27,24,18,92,83,74,30.19,29.87,29.66,10,4,0,14,3,18,0.51,8,Fog-Snow,328
2014-1-30,34,21,8,26,21,5,92,81,69,29.93,29.78,29.70,10,7,0,13,3,16,0.07,6,Fog-Snow,352
2014-1-31,24,15,5,20,13,0,88,79,70,30.04,29.90,29.80,10,5,0,7,1,7,0.04,8,Snow,124